Regional Weather Roundup
Issued by NWS

Home | Current Version | Previous Version | Text Only | Print | Product List | Glossary Off
Versions: 1 2 3 4 5 6 7 8 9 10 11 12 13 14 15 16 17 18 19 20 21 22 23 24 25 26 27 28 29 30 31 32 33 34 35 36 37 38 39 40 41 42 43 44 45 46 47 48 49 50

872
ASUS45 KBOU 011307
RWRCO

WEATHER ROUNDUP FOR COLORADO
NATIONAL WEATHER SERVICE DENVER/BOULDER CO
700 AM MDT SUN MAY 01 2016

NOTE: "FAIR" INDICATES FEW OR NO CLOUDS BELOW 12000 FEET WITH NO
SIGNIFICANT WEATHER AND/OR OBSTRUCTIONS TO VISIBILITY.

COZ001>005-013-030-031-011400-
...NORTHWEST COLORADO...

CITY           SKY/WX    TMP DP  RH WIND       PRES   REMARKS
CRAIG          FAIR      35  22  58 NE12      30.14R WCI  27
HAYDEN         FAIR      34  19  55 E12       30.14R WCI  25
MEEKER         FAIR      32  24  72 CALM      30.07R
MOUNT WERNER   NOT AVBL
STEAMBOAT SPGS FAIR      34  18  52 E22G32    30.14R WCI  22
WALDEN         CLOUDY    28  21  74 NE12      30.23R WCI  18
$$

COZ006>008-011-011400-
...WEST CENTRAL VALLEYS...

CITY           SKY/WX    TMP DP  RH WIND       PRES   REMARKS
GRAND JUNCTION MOCLDY    38  29  70 VRB5      30.00R
MONTROSE       FAIR      36  28  73 N3        30.03R
EAGLE          CLEAR     30  28  93 CALM      30.16R
RIFLE          FAIR      36  25  64 CALM      30.06R
DELTA          NOT AVBL
NUCLA          NOT AVBL
$$

COZ017>023-064>068-011400-
...SOUTHWEST COLORADO...

CITY           SKY/WX    TMP DP  RH WIND       PRES   REMARKS
DURANGO        LGT RAIN  36  35  96 E8        29.99R
CORTEZ         LGT RAIN  37  35  92 SW8       29.97R
PAGOSA SPRINGS SNOW      32  32 100 NE13      30.04S VSB 1/2 WCI  22
TELLURIDE      CLOUDY    29  27  91 CALM      30.00R
WOLF CREEK PAS SNOW      14  14 100 NE22G37   30.12R VSB 1/2 WCI  -4
$$

COZ009-010-012-014-032>034-037-058>063-011400-
...CENTRAL COLORADO...

CITY           SKY/WX    TMP DP  RH WIND       PRES   REMARKS
ASPEN          FAIR      33  15  47 SE9       30.08R WCI  25
BUENA VISTA    CLOUDY    28  22  78 CALM      30.22R
COPPER MTN     NOT AVBL
BERTHOUD PASS  CLOUDY     9   0  66 NE9G31    30.17R WCI  -5
COTTONWOOD PAS FLURRIES  25  19  80 SE3       30.20R
GUNNISON       CLOUDY    34  18  51 E8        30.11R WCI  27
KREMMLING      FAIR      30  23  74 SE3       30.21R
LEADVILLE      MOCLDY    16  13  88 CALM      30.15R
SALIDA         CLOUDY    31  25  78 NE3       30.29R
SUNLIGHT       FAIR     N/A N/A N/A NE7       30.12R
WILKERSON PASS LGT SNOW N/A N/A N/A NE9G18    30.20R VSB 3/4
$$

COZ069>075-011400-
...SAN LUIS VALLEY/SANGRE DE CRISTO MOUNTAINS...

CITY           SKY/WX    TMP DP  RH WIND       PRES   REMARKS
ALAMOSA        LGT SNOW  28  27  96 SE9       30.13R VSB 1   WCI  19
LA VETA PASS   LGT SNOW  21  18  86 MISG      30.18R VSB 3/4
SAGUACHE       CLOUDY    32  19  59 N7        30.13R WCI  26
$$

COZ035-036-038>040-011400-
...NORTHERN COLORADO FRONT RANGE...

CITY           SKY/WX    TMP DP  RH WIND       PRES   REMARKS
DENVER INTL AP LGT SNOW  33  29  85 N13       30.28R FOG     WCI  24
DMNS CITY PARK   N/A     33  32  97 N8        30.30R WCI  25
AURORA         LGT SNOW  32  32 100 N9        30.29R FOG     WCI  24
FRONT RANGE AP LGT SNOW  32  30  93 N10       30.27  VSB 1   WCI  24
ERIE MUNI ARPT LGT SNOW  33  32  94 N9        30.30R WCI  26
BOULDER MUN AP LGT SNOW  34  32  93 CALM      30.30R
CENTENNIAL     LGT SNOW  32  30  92 NW12      30.28R FOG     WCI  23
BROOMFIELD     CLOUDY    32  32 100 NW6       30.29R VSB 3/4 WCI  26
FORT COLLINS   CLOUDY    36  28  75 N12       30.31R
LONGMONT       LGT SNOW  38  32  79 N9        30.32R
$$

COZ041-046-047-076>085-087-088-011400-
...PIKES PEAK/PALMER DIVIDE AND SOUTHERN FOOTHILLS...

CITY           SKY/WX    TMP DP  RH WIND       PRES   REMARKS
COLO. SPRINGS  FLURRIES  33  26  75 NW17G25   30.23R WCI  22
A. F. ACADEMY  MIX PCPN  32  28  86 N17G26    30.23R WCI  21
SCHRIEVER AFB  NOT AVBL
ELLICOTT       NOT AVBL
FALCON         LGT SNOW  30  28  92 N25G31    30.21S WCI  16
FORT CARSON    FAIR      36  27  69 N23G32    30.21R
LIMON          CLOUDY    31  30  96 N25       30.22R WCI  17
MONUMENT HILL  LGT SNOW  28  27  93 N15       30.25R WCI  17
TRINIDAD       CLOUDY    34  28  79 NW3       30.24R
$$

COZ042>045-048>051-090-091-011400-
...NORTHEAST COLORADO...

CITY           SKY/WX    TMP DP  RH WIND       PRES   REMARKS
GREELEY ARPT   CLOUDY    36  30  80 NW6       30.31R
AKRON          CLOUDY    33  31  92 N16       30.26R WCI  23
BURLINGTON     LGT SNOW  34  31  88 N23G31    30.18R FOG     WCI  22
WRAY           NOT AVBL
STERLING       CLOUDY    36  34  93 N8        30.26R
HOLYOKE        NOT AVBL
FORT MORGAN    CLOUDY    35  32  88 N9        30.30R WCI  28
$$

COZ086-089-092>099-011400-
...SOUTHEAST COLORADO...

CITY           SKY/WX    TMP DP  RH WIND       PRES   REMARKS
PUEBLO         PTSUNNY   39  29  67 N8        30.24R
LA JUNTA       CLOUDY    40  32  73 N13       30.23R
LAMAR          CLOUDY    39  32  76 NW12      30.20R
SPRINGFIELD      N/A     37  32  82 N24G31    30.17R
$$




USA.gov is the U.S. government's official web portal to all federal, state and local government web resources and services.